﻿測定場所 (Monitoring sites),日付 (Measurement date),時間 (Measurement time),線量率 最大値 (max) μGy/h,線量率 最小値 (min) μGy/h,線量率 平均値 (average) μGy/h,
江戸川 (Edogawa),2012-07-01,23:01～24:00,0.124,0.112,0.118,
江戸川 (Edogawa),2012-07-01,22:01～23:00,0.124,0.112,0.118,
江戸川 (Edogawa),2012-07-01,21:01～22:00,0.131,0.113,0.121,
江戸川 (Edogawa),2012-07-01,20:01～21:00,0.126,0.112,0.121,
江戸川 (Edogawa),2012-07-01,19:01～20:00,0.132,0.115,0.122,
江戸川 (Edogawa),2012-07-01,18:01～19:00,0.133,0.117,0.126,
江戸川 (Edogawa),2012-07-01,17:01～18:00,0.135,0.121,0.128,
江戸川 (Edogawa),2012-07-01,16:01～17:00,0.133,0.115,0.124,
江戸川 (Edogawa),2012-07-01,15:01～16:00,0.126,0.113,0.120,
江戸川 (Edogawa),2012-07-01,14:01～15:00,0.126,0.113,0.120,
江戸川 (Edogawa),2012-07-01,13:01～14:00,0.126,0.114,0.120,
江戸川 (Edogawa),2012-07-01,12:01～13:00,0.128,0.114,0.120,
江戸川 (Edogawa),2012-07-01,11:01～12:00,0.125,0.114,0.119,
江戸川 (Edogawa),2012-07-01,10:01～11:00,0.126,0.112,0.119,
江戸川 (Edogawa),2012-07-01,09:01～10:00,0.128,0.113,0.120,
江戸川 (Edogawa),2012-07-01,08:01～09:00,0.127,0.115,0.121,
江戸川 (Edogawa),2012-07-01,07:01～08:00,0.127,0.111,0.120,
江戸川 (Edogawa),2012-07-01,06:01～07:00,0.127,0.112,0.120,
江戸川 (Edogawa),2012-07-01,05:01～06:00,0.127,0.114,0.121,
江戸川 (Edogawa),2012-07-01,04:01～05:00,0.128,0.112,0.120,
江戸川 (Edogawa),2012-07-01,03:01～04:00,0.127,0.113,0.120,
江戸川 (Edogawa),2012-07-01,02:01～03:00,0.127,0.114,0.120,
江戸川 (Edogawa),2012-07-01,01:01～02:00,0.127,0.115,0.121,
江戸川 (Edogawa),2012-07-01,00:01～01:00,0.128,0.110,0.120,
江戸川 (Edogawa),2012-06-30,23:01～24:00,0.126,0.112,0.119,
江戸川 (Edogawa),2012-06-30,22:01～23:00,0.125,0.110,0.120,
江戸川 (Edogawa),2012-06-30,21:01～22:00,0.128,0.114,0.120,
江戸川 (Edogawa),2012-06-30,20:01～21:00,0.126,0.113,0.120,
江戸川 (Edogawa),2012-06-30,19:01～20:00,0.126,0.113,0.120,
江戸川 (Edogawa),2012-06-30,18:01～19:00,0.125,0.113,0.119,
江戸川 (Edogawa),2012-06-30,17:01～18:00,0.128,0.115,0.121,
江戸川 (Edogawa),2012-06-30,16:01～17:00,0.126,0.113,0.120,
江戸川 (Edogawa),2012-06-30,15:01～16:00,0.127,0.114,0.120,
江戸川 (Edogawa),2012-06-30,14:01～15:00,0.125,0.114,0.120,
江戸川 (Edogawa),2012-06-30,13:01～14:00,0.127,0.109,0.117,
江戸川 (Edogawa),2012-06-30,12:01～13:00,0.123,0.108,0.115,
江戸川 (Edogawa),2012-06-30,11:01～12:00,0.123,0.107,0.115,
江戸川 (Edogawa),2012-06-30,10:01～11:00,0.120,0.108,0.115,
江戸川 (Edogawa),2012-06-30,09:01～10:00,0.120,0.110,0.115,
江戸川 (Edogawa),2012-06-30,08:01～09:00,0.121,0.108,0.115,
江戸川 (Edogawa),2012-06-30,07:01～08:00,0.126,0.112,0.119,
江戸川 (Edogawa),2012-06-30,06:01～07:00,0.131,0.112,0.120,
江戸川 (Edogawa),2012-06-30,05:01～06:00,0.127,0.111,0.119,
江戸川 (Edogawa),2012-06-30,04:01～05:00,0.125,0.112,0.119,
江戸川 (Edogawa),2012-06-30,03:01～04:00,0.126,0.115,0.120,
江戸川 (Edogawa),2012-06-30,02:01～03:00,0.128,0.114,0.120,
江戸川 (Edogawa),2012-06-30,01:01～02:00,0.125,0.112,0.119,
江戸川 (Edogawa),2012-06-30,00:01～01:00,0.127,0.114,0.119,
江戸川 (Edogawa),2012-06-29,23:01～24:00,0.128,0.112,0.120,
江戸川 (Edogawa),2012-06-29,22:01～23:00,0.126,0.113,0.119,
江戸川 (Edogawa),2012-06-29,21:01～22:00,0.125,0.111,0.120,
江戸川 (Edogawa),2012-06-29,20:01～21:00,0.126,0.113,0.120,
江戸川 (Edogawa),2012-06-29,19:01～20:00,0.126,0.114,0.120,
江戸川 (Edogawa),2012-06-29,18:01～19:00,0.126,0.113,0.120,
江戸川 (Edogawa),2012-06-29,17:01～18:00,0.125,0.114,0.121,
江戸川 (Edogawa),2012-06-29,16:01～17:00,0.129,0.115,0.120,
江戸川 (Edogawa),2012-06-29,15:01～16:00,0.129,0.114,0.120,
江戸川 (Edogawa),2012-06-29,14:01～15:00,0.126,0.110,0.120,
江戸川 (Edogawa),2012-06-29,13:01～14:00,0.128,0.113,0.119,
江戸川 (Edogawa),2012-06-29,12:01～13:00,0.127,0.112,0.119,
江戸川 (Edogawa),2012-06-29,11:01～12:00,0.125,0.113,0.119,
江戸川 (Edogawa),2012-06-29,10:01～11:00,0.127,0.112,0.119,
江戸川 (Edogawa),2012-06-29,09:01～10:00,0.126,0.113,0.120,
江戸川 (Edogawa),2012-06-29,08:01～09:00,0.126,0.114,0.119,
江戸川 (Edogawa),2012-06-29,07:01～08:00,0.128,0.113,0.120,
江戸川 (Edogawa),2012-06-29,06:01～07:00,0.125,0.112,0.119,
江戸川 (Edogawa),2012-06-29,05:01～06:00,0.126,0.111,0.120,
江戸川 (Edogawa),2012-06-29,04:01～05:00,0.129,0.113,0.120,
江戸川 (Edogawa),2012-06-29,03:01～04:00,0.128,0.112,0.120,
江戸川 (Edogawa),2012-06-29,02:01～03:00,0.126,0.113,0.119,
江戸川 (Edogawa),2012-06-29,01:01～02:00,0.130,0.112,0.120,
江戸川 (Edogawa),2012-06-29,00:01～01:00,0.127,0.116,0.120,
江戸川 (Edogawa),2012-06-28,23:01～24:00,0.127,0.114,0.120,
江戸川 (Edogawa),2012-06-28,22:01～23:00,0.126,0.113,0.119,
江戸川 (Edogawa),2012-06-28,21:01～22:00,0.125,0.112,0.119,
江戸川 (Edogawa),2012-06-28,20:01～21:00,0.126,0.112,0.120,
江戸川 (Edogawa),2012-06-28,19:01～20:00,0.124,0.114,0.119,
江戸川 (Edogawa),2012-06-28,18:01～19:00,0.125,0.113,0.119,
江戸川 (Edogawa),2012-06-28,17:01～18:00,0.125,0.113,0.119,
江戸川 (Edogawa),2012-06-28,16:01～17:00,0.126,0.116,0.120,
江戸川 (Edogawa),2012-06-28,15:01～16:00,0.126,0.113,0.120,
江戸川 (Edogawa),2012-06-28,14:01～15:00,0.126,0.112,0.119,
江戸川 (Edogawa),2012-06-28,13:01～14:00,0.127,0.114,0.120,
江戸川 (Edogawa),2012-06-28,12:01～13:00,0.127,0.114,0.120,
江戸川 (Edogawa),2012-06-28,11:01～12:00,0.128,0.109,0.121,
江戸川 (Edogawa),2012-06-28,10:01～11:00,0.129,0.114,0.120,
江戸川 (Edogawa),2012-06-28,09:01～10:00,0.125,0.111,0.119,
江戸川 (Edogawa),2012-06-28,08:01～09:00,0.127,0.109,0.120,
江戸川 (Edogawa),2012-06-28,07:01～08:00,0.127,0.111,0.120,
江戸川 (Edogawa),2012-06-28,06:01～07:00,0.124,0.113,0.119,
江戸川 (Edogawa),2012-06-28,05:01～06:00,0.126,0.112,0.119,
江戸川 (Edogawa),2012-06-28,04:01～05:00,0.124,0.112,0.119,
江戸川 (Edogawa),2012-06-28,03:01～04:00,0.126,0.112,0.119,
江戸川 (Edogawa),2012-06-28,02:01～03:00,0.128,0.115,0.119,
江戸川 (Edogawa),2012-06-28,01:01～02:00,0.125,0.109,0.119,
江戸川 (Edogawa),2012-06-28,00:01～01:00,0.124,0.112,0.119,
江戸川 (Edogawa),2012-06-27,23:01～24:00,0.125,0.110,0.119,
江戸川 (Edogawa),2012-06-27,22:01～23:00,0.128,0.112,0.120,
江戸川 (Edogawa),2012-06-27,21:01～22:00,0.126,0.113,0.120,
江戸川 (Edogawa),2012-06-27,20:01～21:00,0.127,0.113,0.120,
江戸川 (Edogawa),2012-06-27,19:01～20:00,0.126,0.110,0.120,
江戸川 (Edogawa),2012-06-27,18:01～19:00,0.126,0.112,0.119,
江戸川 (Edogawa),2012-06-27,17:01～18:00,0.129,0.112,0.119,
江戸川 (Edogawa),2012-06-27,16:01～17:00,0.124,0.114,0.119,
江戸川 (Edogawa),2012-06-27,15:01～16:00,0.128,0.112,0.120,
江戸川 (Edogawa),2012-06-27,14:01～15:00,0.128,0.109,0.119,
江戸川 (Edogawa),2012-06-27,13:01～14:00,0.125,0.113,0.119,
江戸川 (Edogawa),2012-06-27,12:01～13:00,0.128,0.114,0.120,
江戸川 (Edogawa),2012-06-27,11:01～12:00,0.129,0.112,0.119,
江戸川 (Edogawa),2012-06-27,10:01～11:00,0.128,0.114,0.120,
江戸川 (Edogawa),2012-06-27,09:01～10:00,0.126,0.111,0.118,
江戸川 (Edogawa),2012-06-27,08:01～09:00,0.126,0.112,0.119,
江戸川 (Edogawa),2012-06-27,07:01～08:00,0.127,0.112,0.119,
江戸川 (Edogawa),2012-06-27,06:01～07:00,0.124,0.110,0.118,
江戸川 (Edogawa),2012-06-27,05:01～06:00,0.126,0.111,0.118,
江戸川 (Edogawa),2012-06-27,04:01～05:00,0.123,0.112,0.118,
江戸川 (Edogawa),2012-06-27,03:01～04:00,0.125,0.110,0.118,
江戸川 (Edogawa),2012-06-27,02:01～03:00,0.128,0.114,0.119,
江戸川 (Edogawa),2012-06-27,01:01～02:00,0.125,0.114,0.119,
江戸川 (Edogawa),2012-06-27,00:01～01:00,0.125,0.112,0.118,
江戸川 (Edogawa),2012-06-26,23:01～24:00,0.126,0.110,0.119,
江戸川 (Edogawa),2012-06-26,22:01～23:00,0.125,0.111,0.118,
江戸川 (Edogawa),2012-06-26,21:01～22:00,0.124,0.109,0.118,
江戸川 (Edogawa),2012-06-26,20:01～21:00,0.125,0.111,0.119,
江戸川 (Edogawa),2012-06-26,19:01～20:00,0.130,0.111,0.119,
江戸川 (Edogawa),2012-06-26,18:01～19:00,0.126,0.114,0.119,
江戸川 (Edogawa),2012-06-26,17:01～18:00,0.123,0.111,0.118,
江戸川 (Edogawa),2012-06-26,16:01～17:00,0.124,0.107,0.116,
江戸川 (Edogawa),2012-06-26,15:01～16:00,0.122,0.108,0.116,
江戸川 (Edogawa),2012-06-26,14:01～15:00,0.125,0.110,0.117,
江戸川 (Edogawa),2012-06-26,13:01～14:00,0.122,0.110,0.115,
江戸川 (Edogawa),2012-06-26,12:01～13:00,0.123,0.110,0.116,
江戸川 (Edogawa),2012-06-26,11:01～12:00,0.124,0.109,0.116,
江戸川 (Edogawa),2012-06-26,10:01～11:00,0.123,0.109,0.116,
江戸川 (Edogawa),2012-06-26,09:01～10:00,0.122,0.111,0.116,
江戸川 (Edogawa),2012-06-26,08:01～09:00,0.122,0.109,0.117,
江戸川 (Edogawa),2012-06-26,07:01～08:00,0.124,0.111,0.118,
江戸川 (Edogawa),2012-06-26,06:01～07:00,0.123,0.110,0.117,
江戸川 (Edogawa),2012-06-26,05:01～06:00,0.124,0.111,0.117,
江戸川 (Edogawa),2012-06-26,04:01～05:00,0.124,0.109,0.117,
江戸川 (Edogawa),2012-06-26,03:01～04:00,0.123,0.110,0.116,
江戸川 (Edogawa),2012-06-26,02:01～03:00,0.125,0.111,0.117,
江戸川 (Edogawa),2012-06-26,01:01～02:00,0.125,0.111,0.118,
江戸川 (Edogawa),2012-06-26,00:01～01:00,0.123,0.109,0.117,
江戸川 (Edogawa),2012-06-25,23:01～24:00,0.124,0.111,0.117,
江戸川 (Edogawa),2012-06-25,22:01～23:00,0.124,0.111,0.117,
江戸川 (Edogawa),2012-06-25,21:01～22:00,0.123,0.110,0.117,
江戸川 (Edogawa),2012-06-25,20:01～21:00,0.124,0.111,0.118,
江戸川 (Edogawa),2012-06-25,19:01～20:00,0.124,0.108,0.118,
江戸川 (Edogawa),2012-06-25,18:01～19:00,0.125,0.111,0.117,
江戸川 (Edogawa),2012-06-25,17:01～18:00,0.123,0.110,0.117,
江戸川 (Edogawa),2012-06-25,16:01～17:00,0.119,0.109,0.115,
江戸川 (Edogawa),2012-06-25,15:01～16:00,0.122,0.107,0.115,
江戸川 (Edogawa),2012-06-25,14:01～15:00,0.121,0.108,0.116,
江戸川 (Edogawa),2012-06-25,13:01～14:00,0.122,0.110,0.115,
江戸川 (Edogawa),2012-06-25,12:01～13:00,0.122,0.110,0.115,
江戸川 (Edogawa),2012-06-25,11:01～12:00,0.124,0.112,0.117,
江戸川 (Edogawa),2012-06-25,10:01～11:00,0.122,0.110,0.118,
江戸川 (Edogawa),2012-06-25,09:01～10:00,0.127,0.112,0.118,
江戸川 (Edogawa),2012-06-25,08:01～09:00,0.122,0.110,0.117,
江戸川 (Edogawa),2012-06-25,07:01～08:00,0.122,0.110,0.116,
江戸川 (Edogawa),2012-06-25,06:01～07:00,0.124,0.111,0.116,
江戸川 (Edogawa),2012-06-25,05:01～06:00,0.123,0.110,0.117,
江戸川 (Edogawa),2012-06-25,04:01～05:00,0.122,0.110,0.117,
江戸川 (Edogawa),2012-06-25,03:01～04:00,0.126,0.109,0.117,
江戸川 (Edogawa),2012-06-25,02:01～03:00,0.124,0.111,0.118,
江戸川 (Edogawa),2012-06-25,01:01～02:00,0.122,0.111,0.118,
江戸川 (Edogawa),2012-06-25,00:01～01:00,0.123,0.110,0.118,
